This is the latest recevied weather packets stored in our database for station/object SQ7IQO. If no packets are shown the sender has not sent any weather packets the latest 10 day(s).
| Time | Temp. | Humidity | Pressure | Rain* | Wind** | Luminosity | Snow |
|---|---|---|---|---|---|---|---|
| 1787831860 | 25° C | 45% | 1024.2 hPa | 0 mm | 0 m/s | - | - |
| 1787831800 | 25° C | 43% | 1024.2 hPa | 0 mm | 0 m/s | - | - |
| 1787831740 | 25° C | 43% | 1024.2 hPa | 0 mm | 0 m/s | - | - |
| 1787831680 | 25° C | 44% | 1024.2 hPa | 0 mm | 0 m/s | - | - |
| 1787831620 | 24.44° C | 43% | 1024.2 hPa | 0 mm | 0 m/s | - | - |
| 1787831560 | 23.89° C | 45% | 1024.2 hPa | 0 mm | 0 m/s | - | - |
| 1787831500 | 23.89° C | 44% | 1024.2 hPa | 0 mm | 0 m/s | - | - |
| 1787831440 | 23.89° C | 45% | 1024.2 hPa | 0 mm | 0 m/s | - | - |
| 1787831380 | 23.89° C | 49% | 1024.2 hPa | 0 mm | 0.45 m/s, ° | - | - |
| 1787831320 | 23.89° C | 47% | 1024.2 hPa | 0 mm | 0 m/s | - | - |
| 1787831260 | 23.33° C | 45% | 1024.2 hPa | 0 mm | 0 m/s | - | - |
| 1787831200 | 23.89° C | 44% | 1024.2 hPa | 0 mm | 0.45 m/s, ° | - | - |
| 1787831140 | 23.89° C | 44% | 1024.2 hPa | 0 mm | 0.45 m/s, ° | - | - |
| 1787831080 | 23.89° C | 44% | 1024.2 hPa | 0 mm | 0.45 m/s, ° | - | - |
| 1787831020 | 24.44° C | 43% | 1024.3 hPa | 0 mm | 0.89 m/s, ° | - | - |
| 1787830960 | 24.44° C | 45% | 1024.2 hPa | 0 mm | 0.45 m/s, ° | - | - |
| 1787830900 | 24.44° C | 43% | 1024.2 hPa | 0 mm | 0 m/s | - | - |
| 1787830840 | 25° C | 42% | 1024.2 hPa | 0 mm | 0 m/s | - | - |
| 1787830780 | 24.44° C | 42% | 1024.2 hPa | 0 mm | 0 m/s | - | - |
| 1787830720 | 24.44° C | 43% | 1024.3 hPa | 0 mm | 0 m/s | - | - |
| 1787830660 | 23.89° C | 41% | 1024.3 hPa | 0 mm | 0 m/s | - | - |
| 1787830600 | 23.89° C | 42% | 1024.2 hPa | 0 mm | 0 m/s | - | - |
| 1787830540 | 23.89° C | 45% | 1024.3 hPa | 0 mm | 0.45 m/s, ° | - | - |
| 1787830480 | 23.33° C | 44% | 1024.3 hPa | 0 mm | 0 m/s | - | - |
| 1787830420 | 23.33° C | 45% | 1024.3 hPa | 0 mm | 0.45 m/s, ° | - | - |
* Rain latest hour (hover to see other rain measurements)
** Current wind speed in m/s (hover to see current wind gust speed)